Regional Weather Roundup
Issued by NWS

Current Version | Previous Version | Text Only | Print | Product List | Glossary On
Versions: 1 2 3 4 5 6 7 8 9 10 11 12 13 14 15 16 17 18 19 20 21 22 23 24 25 26 27 28
000
ASUS44 KBMX 260710
RWRAL

ALABAMA REGIONAL WEATHER ROUNDUP
NATIONAL WEATHER SERVICE BIRMINGHAM AL
200 AM CDT MON SEP 26 2016

NOTE: "FAIR" INDICATES FEW OR NO CLOUDS BELOW 12,000 FEET
WITH NO SIGNIFICANT WEATHER AND/OR OBSTRUCTIONS TO VISIBILITY.

THE REMARK "TC" DENOTES TEMPERATURE IN DEGREES CELSIUS.

ALZ001>011-014-016>018-020-260800-
NORTH ALABAMA

CITY           SKY/WX    TMP DP  RH WIND       PRES   REMARKS
MUSCLE SHOALS  CLEAR     70  63  78 CALM      30.01F
HUNTSVILLE     CLOUDY    77  64  64 CALM      30.02F
DECATUR        CLOUDY    77  65  66 E6        30.02S
HALEYVILLE     FAIR      72  64  76 S3        30.05R
GADSDEN        CLEAR     67  64  90 CALM      30.05S
$$

ALZ012-013-022-023-030>036-040>044-260800-
WEST CENTRAL ALABAMA

CITY           SKY/WX    TMP DP  RH WIND       PRES   REMARKS
TUSCALOOSA     CLEAR     73  69  87 CALM      30.01F
$$

ALZ015-024>027-033>036-040>044-260800-
CENTRAL ALABAMA

CITY           SKY/WX    TMP DP  RH WIND       PRES   REMARKS
BIRMINGHAM     PTCLDY    76  66  71 CALM      30.06S
MONTGOMERY     CLOUDY    77  65  66 CALM      30.02F
SHELBY CO ARPT CLEAR     72  65  78 CALM      30.04S
MAXWELL AFB    PTCLDY    74  70  86 NW2       30.02F
GREENVILLE     NOT AVBL
$$

ALZ019-021-028-029-037-038-045>048-260800-
EAST CENTRAL ALABAMA

CITY           SKY/WX    TMP DP  RH WIND       PRES   REMARKS
ANNISTON       CLEAR     70  63  78 CALM      30.06R
ALEXANDER CITY PTCLDY    71  71 100 CALM      30.06S
AUBURN         CLEAR     73  65  75 VRB3      30.07F
$$

ALZ051>064-260800-
SOUTHWEST ALABAMA

CITY           SKY/WX    TMP DP  RH WIND       PRES   REMARKS
MOBILE         PTCLDY    72  70  93 CALM      30.02R
BROOKLEY FIELD PTCLDY    73  72  96 W5        30.01S
EVERGREEN      CLOUDY    72  70  93 CALM      30.02F
$$

ALZ049-050-065>069-260800-
SOUTHEAST ALABAMA

CITY           SKY/WX    TMP DP  RH WIND       PRES   REMARKS
DOTHAN         CLOUDY    73  71  93 CALM      30.06F
OZARK          PTCLDY    72  72  98 CALM      30.03R
TROY           CLOUDY    72  71  97 CALM      30.04F
EUFAULA        MOCLDY    73  69  87 CALM      30.03F
$$




USA.gov is the U.S. government's official web portal to all federal, state and local government web resources and services.